Location: Newark
(48.1500°N, 13.1167°E)
Time: 03:38:52
(UTC+00:00)

ISS - Pass Details

Date: 21 September 2021
Orbit: 417 x 423 km, 51.6° (Epoch: 20 October)

Event Time Altitude Azimuth Distance (km) Brightness Sun altitude
Rises 17:59:51 0° 244° (WSW) 2,355 1.0 -9.5°
Reaches altitude 10° 18:01:56 10° 244° (WSW) 1,495 -0.1 -9.9°
Maximum altitude 18:05:18 84° 155° (SSE) 426 -3.8 -10.4°
Enters shadow 18:08:18 13° 68° (ENE) 1,351 -1.7 -10.9°
